[[{"header":{"parameterUnit":"m.s-1","parameterCategory":1,"la1":30.2991,"la2":30.254,"lo1":-89.0895,"lo2":-89.0444,"dy":0.0017,"dx":0.0017,"nx":28,"ny":28,"refTime":"2025-05-29T21:00:00:Z","depth":0,"parameterNumber":2,"parameterNumberName":"U-component_of_WINDS"},"data":[0,0,0,0,0,0,0,0,0,0,0,0,0,0,0,0,0,0,0,0,0,0,0,0,0,0,0,0,0,0,0,0,0,0,0,0,0,0,0,0,0,0,0,0,0,0,0,0,0,0,0,0,0,0,0,0,0,0,0.2431,0.2432,0,0.2466,0.2467,0.2467,0.2513,0.2514,0.2514,0.2515,0.2549,0.2549,0.2549,0,0,0,0,0,0,0,0,0,0,0,0,0,0.2404,0.2404,0.2431,0.2432,0.2432,0.2466,0.2467,0.2467,0.2513,0.2514,0.2515,0.2515,0.2549,0.2549,0.2549,0,0,0,0,0,0,0,0,0,0,0,0,0,0.2425,0.2404,0.2431,0.2459,0.2462,0.2466,0.2467,0.2467,0.2513,0.2514,0.2515,0.2516,0.2549,0.2549,0.2549,0.2528,0,0,0.255,0.255,0,0,0,0,0,0,0,0,0.2424,0.2426,0.2454,0.2457,0.246,0.2486,0.2469,0.2488,0.2512,0.2493,0.2515,0.2516,0.2527,0.2529,0.2533,0.253,0.2531,0.255,0.255,0.2551,0.2551,0,0,0,0,0,0,0,0.2422,0.2425,0.2445,0.2455,0.2458,0.247,0.2474,0.2473,0.2503,0.2495,0.2498,0.2502,0.2529,0.2533,0.2534,0.2532,0.255,0.255,0.2551,0.2551,0.2515,0.2514,0,0,0,0,0,0,0.2417,0.2423,0.2444,0.2446,0.2444,0.2469,0.2474,0.2477,0.2503,0.2509,0.2501,0.2504,0.2532,0.2534,0.2536,0.2513,0.2551,0.2551,0.2551,0.2516,0.2515,0.2513,0,0,0,0,0,0,0.2416,0.2418,0.2442,0.2436,0.244,0.2469,0.2471,0.2477,0.2481,0.2508,0.2513,0.2499,0.2533,0.2535,0.253,0.2515,0.2551,0.2551,0.2517,0.2516,0.2514,0.2468,0,0,0,0,0,0,0.2415,0.2417,0.2409,0.2435,0.244,0.2436,0.247,0.2477,0.2481,0.2486,0.2508,0.2513,0.2534,0.253,0.2531,0.2516,0.2551,0.2519,0.2517,0.2515,0.2471,0.2465,0.246,0,0,0,0,0,0.2414,0.2394,0.2409,0.2411,0.243,0.2435,0.2438,0.2463,0.248,0.2472,0.249,0.2512,0.2517,0.2529,0.253,0.2516,0.252,0.2517,0.2515,0.2473,0.2466,0.246,0,0,0,0,0,0,0.2365,0.2398,0.2414,0.2403,0.2416,0.2443,0.2434,0.2454,0.2462,0.2466,0.2496,0.2501,0.2492,0.2504,0.2516,0.2498,0.2522,0.2519,0.249,0.2483,0.2478,0.2474,0.2552,0,0,0,0,0,0.2353,0.2354,0.2383,0.237,0.2376,0.2404,0.2407,0.2426,0.244,0.2446,0.2463,0.2476,0.2481,0.2483,0.2489,0.2474,0.2479,0.2465,0.2459,0.2454,0.2451,0.2445,0.2439,0.2505,0.2505,0.2505,0,0,0.2327,0.2346,0.2345,0.2361,0.2373,0.2374,0.2408,0.2407,0.2408,0.2445,0.2442,0.2455,0.2472,0.2462,0.2459,0.2471,0.2435,0.2451,0.2447,0.2447,0.2442,0.2436,0.243,0.2503,0.2504,0.2504,0,0,0.2282,0.2296,0.2287,0.23,0.2319,0.2338,0.2336,0.236,0.2371,0.2369,0.2397,0.2399,0.2406,0.2417,0.2424,0.2386,0.2406,0.2387,0.2357,0.235,0.2345,0.2341,0.2327,0.2322,0.2384,0.2384,0.2384,0,0.2247,0.225,0.228,0.2277,0.2284,0.232,0.2311,0.2322,0.2341,0.2345,0.236,0.2371,0.2385,0.2378,0.2369,0.2374,0.2372,0.2383,0.2344,0.234,0.2336,0.2323,0.2318,0.2382,0.2382,0.2382,0.2382,0,0.2207,0.2209,0.2199,0.2219,0.2225,0.2219,0.2248,0.2251,0.227,0.2287,0.2285,0.2304,0.2314,0.2315,0.2332,0.2311,0.2319,0.2338,0.2363,0.2327,0.2315,0.231,0.2378,0.2379,0.238,0.238,0,0,0.2128,0.2167,0.2162,0.2172,0.2197,0.2199,0.2196,0.2208,0.2209,0.2223,0.2221,0.2228,0.2247,0.2254,0.2274,0.2269,0.2238,0.2289,0.229,0.2278,0.2216,0.22,0.2194,0.2253,0.2252,0.2251,0.2215,0,0.2086,0.2083,0.2111,0.21,0.2102,0.2138,0.2136,0.2151,0.2169,0.2173,0.2193,0.2197,0.2221,0.2226,0.2223,0.2242,0.2226,0.2246,0.2251,0.2251,0.2244,0.2188,0.2171,0.2135,0.221,0.221,0.2209,0,0.2036,0.2048,0.2037,0.2065,0.2067,0.2064,0.2078,0.2082,0.2101,0.2114,0.2124,0.2148,0.2148,0.2173,0.2173,0.2186,0.219,0.22,0.22,0.2199,0.2226,0.2186,0.2124,0.2118,0.2202,0.2203,0.2203,0,0.1978,0.1992,0.1988,0.1996,0.2028,0.2025,0.2038,0.2059,0.2065,0.2077,0.2081,0.2093,0.2099,0.2108,0.2135,0.2151,0.2132,0.2159,0.2143,0.2142,0.2135,0.2135,0.2072,0.214,0.214,0.214,0.214,0,0.1928,0.1919,0.1963,0.196,0.1953,0.1986,0.1978,0.1995,0.2013,0.2015,0.2047,0.2048,0.2084,0.2089,0.211,0.2107,0.211,0.212,0.2126,0.2116,0.2115,0.2118,0.2121,0.2139,0.2139,0.214,0.214,0,0.1861,0.189,0.1888,0.192,0.1928,0.1921,0.1948,0.1947,0.1968,0.1969,0.1972,0.2004,0.2012,0.204,0.2055,0.2069,0.2059,0.207,0.2052,0.2056,0.2037,0.2038,0.1973,0.1966,0.2039,0.2039,0.2038,0,0.1825,0.182,0.1853,0.1856,0.1869,0.1874,0.1881,0.1915,0.192,0.1943,0.194,0.195,0.196,0.1971,0.1996,0.2008,0.2019,0.1996,0.2021,0.2012,0.2018,0.2017,0.2017,0.1989,0.1988,0.1988,0.1987,0,0.1759,0.1775,0.1784,0.1798,0.1806,0.1819,0.1833,0.1835,0.1872,0.1877,0.1886,0.1894,0.1911,0.1921,0.1937,0.1951,0.1975,0.198,0.1976,0.1966,0.1955,0.196,0.2036,0.198,0.1981,0.1981,0.1982,0.1982,0.1707,0.1705,0.1727,0.1737,0.1752,0.1766,0.1767,0.1789,0.1797,0.1813,0.1833,0.184,0.1861,0.1886,0.1898,0.1904,0.1917,0.1912,0.1911,0.1909,0.1904,0.1956,0.1907,0.1908,0.1908,0.1908,0.1908,0,0.1642,0.1659,0.1668,0.1688,0.1696,0.172,0.1739,0.1743,0.1749,0.1767,0.1777,0.1789,0.18,0.1826,0.184,0.184,0.1851,0.1842,0.1841,0.1844,0.1892,0.1893,0.1833,0.1833,0.1833,0.1833,0.1833,0.1833,0.1609,0.1607,0.1625,0.1631,0.1649,0.1656,0.1665,0.1678,0.1693,0.1704,0.1714,0.1732,0.1754,0.177,0.1782,0.1789,0.1792,0.1779,0.179,0.1834,0.1841,0.1848,0.1849,0.178,0.178,0.1742,0.1742,0.1742]},{"header":{"parameterUnit":"m.s-1","parameterCategory":1,"la1":30.2991,"la2":30.254,"lo1":-89.0895,"lo2":-89.0444,"dy":0.0017,"dx":0.0017,"nx":28,"ny":28,"refTime":"2025-05-29T21:00:00:Z","depth":0,"parameterNumber":3,"parameterNumberName":"V-component_of_WINDS"},"data":[0,0,0,0,0,0,0,0,0,0,0,0,0,0,0,0,0,0,0,0,0,0,0,0,0,0,0,0,0,0,0,0,0,0,0,0,0,0,0,0,0,0,0,0,0,0,0,0,0,0,0,0,0,0,0,0,0,0,-5.9123,-5.9123,0,-5.9175,-5.9176,-5.9177,-5.9074,-5.9071,-5.9067,-5.9064,-5.9114,-5.9118,-5.9123,0,0,0,0,0,0,0,0,0,0,0,0,0,-5.8928,-5.8932,-5.9123,-5.9123,-5.9124,-5.9175,-5.9176,-5.9177,-5.9075,-5.9071,-5.9066,-5.9063,-5.9112,-5.9118,-5.9123,0,0,0,0,0,0,0,0,0,0,0,0,0,-5.9,-5.8934,-5.9123,-5.9079,-5.9076,-5.9175,-5.9176,-5.9177,-5.9075,-5.907,-5.9065,-5.9061,-5.9111,-5.9117,-5.9124,-5.9266,0,0,-5.9144,-5.9147,0,0,0,0,0,0,0,0,-5.8996,-5.9007,-5.9085,-5.9082,-5.9079,-5.9113,-5.9126,-5.9207,-5.9077,-5.9076,-5.9064,-5.9058,-5.9117,-5.9123,-5.9144,-5.9268,-5.927,-5.9145,-5.9149,-5.9152,-5.9153,0,0,0,0,0,0,0,-5.8991,-5.9004,-5.9143,-5.9086,-5.9083,-5.9056,-5.906,-5.914,-5.9124,-5.9075,-5.9068,-5.9076,-5.9115,-5.9138,-5.9144,-5.9271,-5.9144,-5.915,-5.9155,-5.9157,-5.9513,-5.9518,0,0,0,0,0,0,-5.8992,-5.9001,-5.9142,-5.9145,-5.9024,-5.9063,-5.9068,-5.9107,-5.9123,-5.912,-5.908,-5.9071,-5.9129,-5.9137,-5.9146,-5.9312,-5.9152,-5.9158,-5.9162,-5.9508,-5.9514,-5.952,0,0,0,0,0,0,-5.8989,-5.9006,-5.9139,-5.9071,-5.9086,-5.9072,-5.9116,-5.9111,-5.9134,-5.9127,-5.9123,-5.9107,-5.9125,-5.9136,-5.9237,-5.9313,-5.9161,-5.9167,-5.9501,-5.951,-5.9517,-5.9648,0,0,0,0,0,0,-5.8983,-5.9005,-5.906,-5.9073,-5.909,-5.9232,-5.9121,-5.9116,-5.9146,-5.9135,-5.9151,-5.9149,-5.9122,-5.9227,-5.9244,-5.9319,-5.9172,-5.9495,-5.9505,-5.9515,-5.9637,-5.966,-5.9679,0,0,0,0,0,-5.8977,-5.9094,-5.9064,-5.9081,-5.9159,-5.9236,-5.9246,-5.9214,-5.9153,-5.9207,-5.9202,-5.9148,-5.9302,-5.9239,-5.9256,-5.9335,-5.949,-5.9502,-5.9514,-5.9627,-5.9655,-5.9679,0,0,0,0,0,0,-5.9089,-5.9095,-5.9061,-5.9187,-5.9212,-5.9219,-5.9287,-5.9245,-5.9287,-5.9274,-5.9231,-5.9236,-5.9344,-5.9349,-5.9279,-5.9472,-5.9385,-5.9402,-5.9465,-5.9492,-5.9513,-5.9509,-5.9178,0,0,0,0,0,-5.9129,-5.9193,-5.9194,-5.9304,-5.9319,-5.9301,-5.9333,-5.9307,-5.9331,-5.934,-5.9343,-5.9367,-5.942,-5.9456,-5.9505,-5.9637,-5.9638,-5.97,-5.9721,-5.9738,-5.9753,-5.9821,-5.9848,-5.9561,-5.9561,-5.956,0,0,-5.9211,-5.9222,-5.9265,-5.9327,-5.9344,-5.9409,-5.9311,-5.9384,-5.9432,-5.9351,-5.9446,-5.9449,-5.9473,-5.9589,-5.9641,-5.9597,-5.9832,-5.9754,-5.9768,-5.9773,-5.9837,-5.9864,-5.9888,-5.9569,-5.9567,-5.9566,0,0,-5.9394,-5.941,-5.9503,-5.9522,-5.9548,-5.9536,-5.9558,-5.9572,-5.9571,-5.9666,-5.9607,-5.9662,-5.9755,-5.9774,-5.9796,-5.9986,-5.9937,-6.0003,-6.0113,-6.0181,-6.0204,-6.0223,-6.029,-6.0315,-6.0017,-6.0018,-6.0018,0,-5.9492,-5.959,-5.9556,-5.9634,-5.9662,-5.9594,-5.9687,-5.9706,-5.9747,-5.9767,-5.9718,-5.9833,-5.9844,-5.9964,-6.0011,-6.0031,-6.0054,-6.0001,-6.0203,-6.0223,-6.0241,-6.0304,-6.0329,-6.0026,-6.0025,-6.0024,-6.0023,0,-5.9709,-5.9778,-5.9849,-5.9892,-5.9929,-6.0014,-5.9991,-6.0032,-6.0002,-5.9994,-6.0091,-6.0102,-6.0152,-6.0178,-6.0149,-6.0294,-6.0265,-6.0211,-6.0122,-6.0277,-6.0335,-6.0359,-6.0037,-6.0034,-6.0032,-6.003,0,0,-5.9964,-5.9987,-6.0014,-6.0032,-6.0056,-6.0108,-6.0189,-6.0239,-6.0274,-6.0304,-6.037,-6.0451,-6.04,-6.0425,-6.0398,-6.0458,-6.0606,-6.0395,-6.0395,-6.0433,-6.0764,-6.0805,-6.0834,-6.0574,-6.0579,-6.0582,-6.0762,0,-6.0144,-6.0286,-6.0258,-6.0396,-6.0458,-6.0394,-6.0464,-6.0486,-6.048,-6.0531,-6.0524,-6.0582,-6.0511,-6.0525,-6.0582,-6.0576,-6.0672,-6.0563,-6.0633,-6.0636,-6.0629,-6.0864,-6.0908,-6.1077,-6.0785,-6.0789,-6.0791,0,-6.0374,-6.0415,-6.056,-6.0574,-6.0599,-6.0663,-6.0706,-6.0756,-6.0778,-6.077,-6.0798,-6.0759,-6.0838,-6.0749,-6.0856,-6.0783,-6.081,-6.0811,-6.0817,-6.0822,-6.0723,-6.0874,-6.113,-6.1155,-6.0827,-6.0824,-6.0822,0,-6.0545,-6.0635,-6.0733,-6.0751,-6.077,-6.0816,-6.0826,-6.0844,-6.0875,-6.0912,-6.0932,-6.0977,-6.1002,-6.1037,-6.1011,-6.0949,-6.1122,-6.1031,-6.1116,-6.1117,-6.1154,-6.1152,-6.1417,-6.1174,-6.1173,-6.1173,-6.1172,0,-6.0749,-6.084,-6.081,-6.0871,-6.097,-6.0935,-6.1034,-6.1036,-6.1052,-6.111,-6.1057,-6.1112,-6.1074,-6.1126,-6.1106,-6.1197,-6.1209,-6.1203,-6.1196,-6.1207,-6.1208,-6.1224,-6.1211,-6.118,-6.1178,-6.1177,-6.1176,0,-6.0956,-6.094,-6.1042,-6.1052,-6.1057,-6.1129,-6.1137,-6.1192,-6.1183,-6.1257,-6.1272,-6.1257,-6.1315,-6.1293,-6.1354,-6.134,-6.1457,-6.1435,-6.145,-6.1444,-6.1529,-6.1521,-6.1813,-6.1849,-6.1584,-6.1586,-6.1588,0,-6.1087,-6.1156,-6.1173,-6.1209,-6.1223,-6.1282,-6.1314,-6.1282,-6.1317,-6.1348,-6.1399,-6.1453,-6.1494,-6.159,-6.1583,-6.163,-6.1608,-6.1707,-6.1614,-6.1623,-6.1608,-6.1604,-6.161,-6.1725,-6.1728,-6.1731,-6.1733,0,-6.1321,-6.131,-6.1359,-6.1407,-6.1447,-6.1482,-6.1512,-6.1544,-6.1513,-6.1555,-6.1615,-6.1647,-6.171,-6.1764,-6.1805,-6.1813,-6.1768,-6.1762,-6.1784,-6.1796,-6.1801,-6.1798,-6.1499,-6.1756,-6.1753,-6.1752,-6.175,-6.175,-6.1493,-6.1551,-6.1573,-6.1629,-6.1649,-6.1678,-6.173,-6.1728,-6.1778,-6.1827,-6.1805,-6.1874,-6.1893,-6.1944,-6.1958,-6.201,-6.1971,-6.2003,-6.2011,-6.2019,-6.203,-6.1794,-6.2017,-6.2017,-6.2016,-6.2016,-6.2015,0,-6.1724,-6.1735,-6.1787,-6.1831,-6.1876,-6.1831,-6.1862,-6.1901,-6.1963,-6.1986,-6.2028,-6.2096,-6.2147,-6.2145,-6.2192,-6.2234,-6.2215,-6.2248,-6.2244,-6.2246,-6.2063,-6.2039,-6.2263,-6.2263,-6.2262,-6.2262,-6.2262,-6.2262,-6.1849,-6.1944,-6.1935,-6.2039,-6.2048,-6.2116,-6.2138,-6.2164,-6.2181,-6.226,-6.2303,-6.2302,-6.2314,-6.2362,-6.2407,-6.2405,-6.2424,-6.2465,-6.2455,-6.2283,-6.2259,-6.2235,-6.2213,-6.2469,-6.247,-6.2633,-6.2635,-6.2636]}]]